Weather History for KLGD - October, 2012

Change the Weather History Date:

Wednesday, October 31, 2012

  Actual Average Record
Temperature  
Mean Temperature 58 °F -  
Max Temperature 66 °F 49 °F 75 °F (1965)
Min Temperature 50 °F 30 °F 8 °F (2002)
Degree Days  
Heating Degree Days 6    
Growing Degree Days 8 (Base 50)    
Moisture  
Dew Point 35 °F    
Average Humidity 41    
Maximum Humidity 62    
Minimum Humidity 30    
Precipitation  
Precipitation 0.00 in - - ()
Sea Level Pressure  
Sea Level Pressure 29.83 in    
Wind  
Wind Speed 14 mph (South)    
Max Wind Speed 25 mph    
Max Gust Speed 38 mph    
Visibility 10 miles    
Events      
Averages and records for this station are not official NWS values.
T = Trace of Precipitation, MM = Missing Value Source: NWS Daily Summary

Daily Weather History Graph

Daily Weather History Graph

Search for Another Location

Airport or City:

Trip Planner

Search our weather history database for the weather conditions in past years. The results will help you decide how hot, cold, wet, or windy it might be!

Date:

Astronomy

Oct. 31, 2012 Rise Set
Actual Time 7:30 AM PDT 5:40 PM PDT
Civil Twilight 6:59 AM PDT 6:10 PM PDT
Nautical Twilight 6:24 AM PDT 6:45 PM PDT
Astronomical Twilight 5:50 AM PDT 7:19 PM PDT
Moon 6:49 PM PDT (10/31) 9:21 AM PDT (10/31)
Length of Visible Light 11h 11m
Length of Day
10h 09m
Waning Gibbous, 97% of the Moon is Illuminated
Oct 31
Waning Gibbous
Nov 6
Last Quarter
Nov 13
New
Nov 20
First Quarter
Nov 28
Full

Hourly Weather History & Observations

Time (PDT) Temp. Dew Point Humidity Pressure Visibility Wind Dir Wind Speed Gust Speed Precip Events Conditions
12:15 AM 59.0 °F 37.4 °F 45% 29.90 in 10.0 mi SSE 21.9 mph 26.5 mph N/A   Clear
12:35 AM 59.0 °F 37.4 °F 45% 29.90 in 10.0 mi SE 13.8 mph 26.5 mph N/A   Clear
12:55 AM 60.8 °F 37.4 °F 42% 29.90 in 10.0 mi SSE 13.8 mph 25.3 mph N/A   Clear
1:15 AM 57.2 °F 37.4 °F 48% 29.90 in 10.0 mi SSE 16.1 mph - N/A   Clear
1:35 AM 59.0 °F 37.4 °F 45% 29.89 in 10.0 mi South 16.1 mph 21.9 mph N/A   Clear
1:55 AM 59.0 °F 37.4 °F 45% 29.89 in 10.0 mi South 17.3 mph 24.2 mph N/A   Clear
2:15 AM 59.0 °F 37.4 °F 45% 29.89 in 10.0 mi SE 13.8 mph - N/A   Clear
2:35 AM 59.0 °F 37.4 °F 45% 29.90 in 10.0 mi SE 12.7 mph 17.3 mph N/A   Clear
2:55 AM 59.0 °F 37.4 °F 45% 29.89 in 10.0 mi SSE 12.7 mph 17.3 mph N/A   Clear
3:15 AM 59.0 °F 37.4 °F 45% 29.87 in 10.0 mi SSE 12.7 mph 21.9 mph N/A   Clear
3:35 AM 59.0 °F 37.4 °F 45% 29.87 in 10.0 mi SSE 18.4 mph 21.9 mph N/A   Clear
3:55 AM 60.8 °F 37.4 °F 42% 29.84 in 10.0 mi South 10.4 mph - N/A   Clear
4:15 AM 60.8 °F 35.6 °F 39% 29.87 in 10.0 mi SSE 8.1 mph 21.9 mph N/A   Clear
4:35 AM 59.0 °F 35.6 °F 42% 29.87 in 10.0 mi SE 10.4 mph - N/A   Clear
4:55 AM 59.0 °F 35.6 °F 42% 29.87 in 10.0 mi SSE 15.0 mph - N/A   Clear
5:15 AM 60.8 °F 35.6 °F 39% 29.87 in 10.0 mi South 11.5 mph 20.7 mph N/A   Clear
5:35 AM 60.8 °F 35.6 °F 39% 29.86 in 10.0 mi South 15.0 mph 20.7 mph N/A   Clear
5:55 AM 60.8 °F 35.6 °F 39% 29.86 in 10.0 mi SSE 16.1 mph 24.2 mph N/A   Clear
6:15 AM 59.0 °F 35.6 °F 42% 29.86 in 10.0 mi SE 8.1 mph 20.7 mph N/A   Clear
6:35 AM 59.0 °F 35.6 °F 42% 29.85 in 10.0 mi SE 11.5 mph 18.4 mph N/A   Clear
6:55 AM 59.0 °F 33.8 °F 39% 29.84 in 10.0 mi ESE 15.0 mph 25.3 mph N/A   Clear
7:15 AM 59.0 °F 33.8 °F 39% 29.84 in 10.0 mi SSE 9.2 mph 20.7 mph N/A   Clear
7:35 AM 57.2 °F 33.8 °F 41% 29.84 in 10.0 mi SSE 12.7 mph 23.0 mph N/A   Clear
7:55 AM 57.2 °F 33.8 °F 41% 29.84 in 10.0 mi South 12.7 mph 19.6 mph N/A   Clear
8:15 AM 59.0 °F 33.8 °F 39% 29.84 in 10.0 mi SSE 11.5 mph 17.3 mph N/A   Clear
8:35 AM 59.0 °F 33.8 °F 39% 29.85 in 10.0 mi South 13.8 mph 21.9 mph N/A   Clear
8:55 AM 60.8 °F 33.8 °F 36% 29.85 in 10.0 mi South 20.7 mph 28.8 mph N/A   Clear
9:15 AM 60.8 °F 32.0 °F 34% 29.86 in 10.0 mi South 18.4 mph 26.5 mph N/A   Clear
9:35 AM 59.0 °F 33.8 °F 39% 29.87 in 10.0 mi South 8.1 mph 21.9 mph N/A   Clear
9:55 AM 59.0 °F 33.8 °F 39% 29.87 in 10.0 mi Calm Calm - N/A   Clear
10:15 AM 59.0 °F 33.8 °F 39% 29.86 in 10.0 mi SE 4.6 mph - N/A   Clear
10:35 AM 59.0 °F 33.8 °F 39% 29.86 in 10.0 mi South 12.7 mph 17.3 mph N/A   Clear
10:55 AM 60.8 °F 33.8 °F 36% 29.85 in 10.0 mi South 13.8 mph 21.9 mph N/A   Clear
11:15 AM 60.8 °F 33.8 °F 36% 29.85 in 10.0 mi South 16.1 mph 20.7 mph N/A   Clear
11:35 AM 60.8 °F 33.8 °F 36% 29.84 in 10.0 mi South 16.1 mph 23.0 mph N/A   Clear
11:55 AM 60.8 °F 33.8 °F 36% 29.84 in 10.0 mi South 10.4 mph - N/A   Clear
12:15 PM 60.8 °F 33.8 °F 36% 29.84 in 10.0 mi South 12.7 mph 18.4 mph N/A   Clear
12:35 PM 62.6 °F 33.8 °F 34% 29.83 in 10.0 mi South 4.6 mph 16.1 mph N/A   Clear
12:55 PM 62.6 °F 33.8 °F 34% 29.82 in 10.0 mi South 11.5 mph 18.4 mph N/A   Clear
1:15 PM 62.6 °F 33.8 °F 34% 29.81 in 10.0 mi South 15.0 mph 21.9 mph N/A   Clear
1:35 PM 62.6 °F 33.8 °F 34% 29.80 in 10.0 mi South 12.7 mph - N/A   Clear
1:55 PM 64.4 °F 33.8 °F 32% 29.79 in 10.0 mi South 12.7 mph - N/A   Clear
2:15 PM 64.4 °F 35.6 °F 34% 29.78 in 10.0 mi South 12.7 mph - N/A   Clear
2:35 PM 66.2 °F 35.6 °F 32% 29.77 in 10.0 mi South 9.2 mph - N/A   Clear
2:55 PM 66.2 °F 35.6 °F 32% 29.77 in 10.0 mi South 9.2 mph - N/A   Clear
3:15 PM 66.2 °F 35.6 °F 32% 29.76 in 10.0 mi South 6.9 mph - N/A   Clear
3:35 PM 66.2 °F 33.8 °F 30% 29.77 in 10.0 mi South 15.0 mph 18.4 mph N/A   Clear
3:55 PM 64.4 °F 32.0 °F 30% 29.76 in 10.0 mi South 13.8 mph - N/A   Clear
4:15 PM 64.4 °F 32.0 °F 30% 29.76 in 10.0 mi SSW 10.4 mph - N/A   Clear
4:35 PM 62.6 °F 32.0 °F 32% 29.77 in 10.0 mi SSW 15.0 mph - N/A   Clear
4:55 PM 62.6 °F 32.0 °F 32% 29.76 in 10.0 mi SSW 15.0 mph - N/A   Clear
5:15 PM 62.6 °F 32.0 °F 32% 29.76 in 10.0 mi SW 12.7 mph - N/A   Clear
5:35 PM 62.6 °F 30.2 °F 30% 29.76 in 10.0 mi SSW 11.5 mph - N/A   Clear
5:55 PM 60.8 °F 30.2 °F 31% 29.77 in 10.0 mi SSW 13.8 mph - N/A   Clear
6:15 PM 60.8 °F 32.0 °F 34% 29.77 in 10.0 mi SSW 15.0 mph 20.7 mph N/A   Clear
6:35 PM 60.8 °F 32.0 °F 34% 29.77 in 10.0 mi SSW 12.7 mph - N/A   Partly Cloudy
6:55 PM 60.8 °F 32.0 °F 34% 29.77 in 10.0 mi SSW 13.8 mph - N/A   Partly Cloudy
7:15 PM 60.8 °F 32.0 °F 34% 29.76 in 10.0 mi South 13.8 mph - N/A   Scattered Clouds
7:35 PM 60.8 °F 32.0 °F 34% 29.77 in 10.0 mi West 5.8 mph - N/A   Mostly Cloudy
8:15 PM 55.4 °F 37.4 °F 51% 29.80 in 10.0 mi WNW 25.3 mph 38.0 mph N/A   Overcast
8:35 PM 55.4 °F 37.4 °F 51% 29.80 in 10.0 mi WNW 20.7 mph 28.8 mph N/A   Overcast
8:55 PM 53.6 °F 37.4 °F 54% 29.81 in 10.0 mi WNW 13.8 mph - N/A   Overcast
9:15 PM 53.6 °F 39.2 °F 58% 29.82 in 10.0 mi WNW 13.8 mph - N/A   Overcast
9:35 PM 53.6 °F 39.2 °F 58% 29.83 in 10.0 mi NW 12.7 mph - N/A   Overcast
9:55 PM 53.6 °F 39.2 °F 58% 29.82 in 10.0 mi NW 16.1 mph - N/A   Overcast
10:15 PM 53.6 °F 39.2 °F 58% 29.82 in 10.0 mi WNW 12.7 mph - N/A   Overcast
10:35 PM 53.6 °F 39.2 °F 58% 29.83 in 10.0 mi WNW 10.4 mph - N/A   Overcast
10:55 PM 53.6 °F 37.4 °F 54% 29.82 in 10.0 mi SE 10.4 mph - N/A   Overcast
11:15 PM 51.8 °F 39.2 °F 62% 29.81 in 10.0 mi SE 9.2 mph - N/A   Overcast
11:35 PM 50.0 °F 37.4 °F 62% 29.82 in 10.0 mi WNW 5.8 mph - N/A   Overcast